Wind_Speed
64 65 56 51 50 49 46 42 40 38 36 35 34 33 33 34 30 27 24 18 14 14 18 21 28 36 39 40 44 47 46 48
64 61 57 51 51 49 47 43 41 39 38 39 39 37 34 36 40 22 27 29 30 20 17 16 18 20 29 36 42 46 49 51
64 59 56 51 50 50 45 46 42 39 37 37 39 39 40 39 39 35 27 28 20 24 23 24 21 20 24 27 29 36 44 50
65 58 54 51 50 50 49 47 43 41 37 34 38 36 36 35 36 34 36 34 30 22 18 27 19 23 25 25 26 31 34 38
66 60 53 49 50 51 50 48 45 43 41 36 36 37 27 31 30 31 30 31 29 29 22 22 20 21 23 23 28 29 27 32
64 58 52 50 51 52 49 47 46 42 37 36 37 37 33 27 25 25 25 28 30 27 27 27 28 26 27 32 31 27 28 28
64 57 51 50 51 51 50 45 41 40 37 37 36 35 32 33 25 28 25 27 30 29 29 29 28 28 32 32 37 38 35 30
63 56 49 47 50 51 46 44 39 37 36 36 36 33 34 32 28 26 28 30 32 32 30 27 27 27 30 35 39 42 42 40
57 54 48 45 47 49 46 41 39 37 35 37 37 38 33 29 33 31 30 31 28 32 32 28 23 29 30 35 41 45 49 46
55 52 48 45 45 48 45 43 41 38 36 35 37 34 36 34 29 31 37 37 34 30 31 30 31 31 35 38 42 44 51 53
54 54 50 44 44 46 44 42 42 42 41 39 37 36 35 38 38 37 36 35 31 32 33 32 31 31 34 41 44 48 54 58
53 55 51 46 43 45 43 42 43 42 42 40 40 37 37 40 39 38 37 32 33 34 34 37 41 38 41 44 47 51 57 62
51 52 50 44 43 44 44 42 43 44 42 42 42 40 38 39 39 38 32 36 36 39 44 44 45 42 43 43 49 56 60 64
53 52 49 46 44 43 44 46 43 45 43 43 42 43 42 40 39 39 36 37 40 43 43 45 44 45 47 48 55 60 64 66
48 49 48 46 44 44 45 46 47 46 45 43 44 45 44 44 41 39 43 43 45 49 46 44 47 45 48 55 57 61 62 68
44 43 48 46 46 44 46 48 50 49 48 45 46 45 45 48 43 43 46 47 48 46 47 50 46 47 51 55 60 64 66 70
55 49 47 46 44 43 47 51 51 52 49 47 46 46 48 47 47 47 46 47 46 45 46 48 45 50 54 60 65 63 67 74
57 54 45 46 47 45 49 51 52 55 54 47 45 48 48 48 52 48 49 46 49 48 48 48 48 54 60 62 64 66 70 76
56 54 47 45 46 47 51 52 55 55 55 46 44 48 51 50 53 50 50 48 50 47 49 48 54 57 58 62 65 71 77 78
53 50 52 48 48 50 52 53 57 57 55 51 44 49 48 51 53 51 52 51 52 48 48 49 57 59 61 64 69 72 73 79
Wind_Direction
2 1 4 5 4 6 7 8 10 11 15 16 15 15 14 14 19 8 3 356 335 308 291 281 270 264 265 266 265 260 258 256
360 1 2 2 360 3 4 5 6 7 10 6 8 8 11 13 18 16 12 360 359 356 332 303 285 280 269 267 262 260 259 259
357 358 358 359 358 358 2 0 3 4 5 5 3 1 5 7 7 10 5 6 0 359 343 328 323 300 283 277 270 265 261 260
353 353 355 356 355 356 358 358 1 2 2 360 1 0 353 360 359 359 0 360 359 350 346 346 321 321 322 306 285 273 265 261
348 349 350 353 352 353 354 356 355 360 360 358 354 357 348 352 353 352 352 355 353 354 353 352 342 342 338 320 308 306 292 279
344 346 346 349 349 350 353 353 353 357 351 350 349 346 349 343 345 349 350 350 343 346 345 347 347 353 358 10 6 349 322 311
343 342 343 346 347 347 349 350 350 350 349 346 339 339 336 340 335 340 339 338 341 341 338 344 353 353 1 353 4 2 358 341
340 339 340 344 346 345 343 343 344 344 343 339 335 331 330 331 335 333 336 339 340 336 333 335 340 344 347 355 1 360 357 352
336 338 337 341 341 342 342 340 336 335 333 334 335 335 332 329 325 324 332 336 331 330 331 330 345 353 349 354 354 355 353 351
333 335 333 335 336 338 340 340 338 334 333 334 331 332 324 320 320 319 322 326 330 335 337 338 339 341 344 346 348 346 349 349
331 333 327 329 332 335 335 336 336 332 333 330 325 330 330 325 317 315 316 320 326 329 334 338 338 335 337 344 341 339 345 347
326 327 325 324 329 332 333 332 331 330 330 327 326 321 332 335 324 321 316 319 319 325 330 331 331 332 338 340 335 336 341 342
322 325 323 321 326 330 329 329 326 326 323 326 322 321 329 336 325 324 316 321 322 322 324 328 329 333 337 332 333 337 341 340
320 321 320 317 323 327 327 327 325 324 321 320 314 317 320 330 326 318 317 318 320 325 327 325 332 336 332 331 336 338 338 338
319 317 315 317 319 325 325 324 323 324 321 314 311 313 316 321 331 316 316 316 322 326 326 329 334 333 328 331 336 337 333 333
321 318 315 315 315 320 323 321 323 323 320 313 311 312 307 312 324 316 313 321 327 327 327 328 329 324 327 329 333 332 333 331
321 319 314 309 311 317 321 322 322 321 318 311 311 305 310 311 324 317 313 318 322 325 327 329 326 324 328 328 331 329 328 330
317 316 305 304 305 312 318 321 320 319 317 310 307 303 307 309 320 317 312 315 319 320 323 323 320 325 326 326 326 324 323 325
306 306 298 297 303 309 316 318 317 317 314 311 309 300 305 312 313 317 310 317 319 317 319 321 322 322 324 324 324 324 324 325
302 299 296 295 301 309 312 314 315 314 312 313 308 302 303 311 308 310 311 313 314 314 316 318 323 323 326 321 320 322 321 322
Height
10833 10825 10818 10812 10806 10800 10794 10789 10784 10778 10775 10771 10767 10763 10758 10754 10749 10744 10741 10739 10737 10733 10732 10729 10729 10728 10728 10727 10725 10725 10725 10723
10832 10825 10818 10811 10805 10800 10794 10787 10783 10777 10772 10768 10764 10761 10758 10753 10749 10745 10742 10737 10733 10731 10729 10727 10724 10721 10719 10717 10716 10716 10714 10713
10830 10824 10817 10811 10804 10799 10793 10787 10782 10776 10772 10766 10762 10757 10753 10749 10746 10742 10740 10737 10734 10730 10725 10722 10719 10716 10714 10710 10708 10707 10705 10702
10827 10821 10815 10808 10802 10796 10790 10785 10779 10774 10769 10764 10759 10753 10748 10744 10740 10739 10736 10734 10731 10727 10725 10719 10715 10711 10707 10703 10701 10698 10695 10692
10824 10817 10812 10806 10799 10793 10787 10781 10775 10770 10765 10760 10757 10753 10747 10743 10739 10735 10731 10728 10724 10721 10718 10715 10712 10708 10703 10698 10694 10689 10685 10681
10820 10812 10807 10802 10795 10789 10783 10776 10770 10766 10761 10757 10754 10750 10746 10742 10737 10733 10728 10725 10722 10718 10714 10710 10707 10702 10696 10692 10688 10683 10677 10672
10818 10810 10802 10797 10791 10785 10779 10774 10769 10763 10760 10756 10751 10747 10742 10739 10735 10731 10727 10723 10719 10715 10711 10706 10701 10696 10690 10686 10682 10676 10671 10666
10813 10806 10799 10793 10787 10782 10774 10769 10766 10762 10758 10754 10750 10745 10740 10735 10732 10728 10724 10721 10717 10712 10707 10702 10697 10692 10688 10681 10677 10673 10667 10661
10808 10802 10796 10790 10786 10781 10774 10769 10763 10758 10755 10751 10747 10741 10737 10733 10729 10726 10722 10717 10712 10708 10702 10696 10691 10687 10681 10676 10670 10665 10660 10655
10805 10798 10792 10787 10783 10778 10772 10767 10762 10757 10753 10749 10744 10739 10734 10731 10727 10723 10717 10712 10707 10702 10696 10691 10687 10681 10675 10669 10664 10658 10651 10646
10801 10796 10788 10784 10779 10774 10768 10762 10758 10753 10749 10744 10740 10735 10731 10727 10722 10719 10714 10708 10702 10696 10692 10687 10682 10675 10669 10662 10656 10649 10643 10636
10796 10791 10784 10778 10773 10768 10763 10757 10752 10747 10744 10739 10734 10729 10724 10721 10716 10712 10708 10703 10698 10692 10687 10681 10675 10668 10661 10654 10648 10642 10634 10625
10789 10784 10778 10773 10768 10763 10758 10753 10747 10741 10737 10733 10727 10722 10717 10713 10708 10705 10700 10696 10691 10686 10680 10674 10667 10661 10652 10646 10640 10633 10624 10617
10783 10777 10772 10767 10762 10757 10752 10747 10741 10736 10731 10727 10722 10716 10711 10707 10703 10699 10694 10689 10684 10678 10672 10665 10658 10651 10645 10639 10631 10622 10613 10605
10779 10771 10766 10761 10756 10750 10745 10740 10735 10729 10724 10720 10714 10709 10704 10700 10696 10691 10686 10680 10675 10668 10662 10655 10649 10641 10636 10629 10621 10612 10603 10595
10771 10764 10758 10754 10750 10745 10739 10733 10729 10722 10716 10711 10707 10703 10698 10694 10689 10684 10678 10671 10665 10659 10653 10647 10640 10632 10626 10619 10610 10602 10593 10583
10761 10756 10750 10746 10741 10737 10732 10725 10721 10715 10709 10703 10699 10696 10692 10686 10681 10676 10669 10663 10657 10650 10644 10637 10629 10622 10615 10608 10600 10592 10582 10573
10750 10744 10740 10735 10731 10728 10724 10718 10712 10706 10700 10695 10691 10687 10683 10678 10673 10667 10661 10655 10649 10642 10635 10627 10620 10613 10606 10597 10588 10580 10570 10562
10737 10734 10730 10726 10722 10718 10714 10709 10704 10698 10692 10687 10682 10678 10675 10669 10664 10658 10651 10645 10639 10633 10626 10619 10612 10603 10594 10585 10575 10567 10557 10546
10728 10725 10722 10719 10715 10709 10704 10699 10694 10689 10682 10677 10674 10669 10666 10661 10654 10649 10643 10635 10629 10623 10616 10608 10599 10590 10580 10571 10563 10555 10544 10533